Washington Pass
Washington Pass
Latest observation 08/31 18:00 PDT
| Time (PDT) | Temp °F 6680' | Temp °F 5450' | RH % 6680' | RH % 5450' | Min mph 6680' | Spd mph 6680' | Gust mph 6680' | Dir ° 6680' | Pcp1 in 5450' | PcpSum in 5450' | SnoHt in 5450' | EqTemp °F 5450' |
|---|---|---|---|---|---|---|---|---|---|---|---|---|
| 08/31 18:00 | 57 | 58 | 54 | 62 | 0 | 0 | 2 | 27 | 0.00 | 0.03 | 4.2 | 64 |
| 08/31 17:00 | 60 | 62 | 46 | 46 | 0 | 5 | 11 | 175 | 0.00 | 0.03 | 4.0 | 79 |
| 08/31 16:00 | 60 | 61 | 50 | 47 | 4 | 8 | 11 | 175 | 0.00 | 0.03 | 2.9 | 74 |
| 08/31 15:00 | 58 | 58 | 51 | 58 | 2 | 7 | 10 | 46 | 0.00 | 0.03 | 4.4 | 65 |
| 08/31 14:00 | 59 | 59 | 51 | 52 | 0 | 5 | 9 | 151 | 0.00 | 0.03 | 4.0 | 68 |
| 08/31 13:00 | 55 | 61 | 59 | 49 | 0 | 3 | 7 | 40 | 0.00 | 0.03 | 2.0 | 74 |
| 08/31 12:00 | 53 | 57 | 63 | 55 | 0 | 3 | 8 | 37 | 0.00 | 0.03 | 3.6 | 65 |
| 08/31 11:00 | 48 | 51 | 73 | 68 | 0 | 5 | 10 | 17 | 0.00 | 0.03 | 4.3 | 57 |
| 08/31 10:00 | 47 | 46 | 74 | 79 | 0 | 2 | 6 | 23 | 0.00 | 0.03 | 3.4 | 45 |
| 08/31 09:00 | 49 | 42 | 70 | 93 | 0 | 0 | 2 | 31 | 0.00 | 0.03 | 3.0 | 42 |
| 08/31 08:00 | 46 | 40 | 76 | 96 | 0 | 0 | 3 | 175 | 0.00 | 0.03 | 4.7 | 39 |
| 08/31 07:00 | 43 | 37 | 83 | 96 | 0 | 1 | 3 | 166 | 0.00 | 0.03 | 4.8 | 37 |
| 08/31 06:00 | 44 | 37 | 78 | 94 | 0 | 0 | 0 | 80 | 0.00 | 0.03 | 4.8 | 37 |
| 08/31 05:00 | 44 | 37 | 79 | 94 | 0 | 1 | 2 | 218 | 0.00 | 0.03 | 5.0 | 37 |
| 08/31 04:00 | 45 | 37 | 76 | 94 | 0 | 3 | 6 | 224 | 0.00 | 0.03 | 5.0 | 37 |
| 08/31 03:00 | 44 | 37 | 77 | 93 | 0 | 3 | 5 | 203 | 0.00 | 0.03 | 5.4 | 37 |
| 08/31 02:00 | 45 | 37 | 74 | 93 | 0 | 2 | 5 | 212 | 0.00 | 0.03 | 5.2 | 36 |
| 08/31 01:00 | 45 | 37 | 75 | 91 | 0 | 0 | 2 | 176 | 0.00 | 0.03 | 5.3 | 37 |
| 08/31 00:00 | 46 | 38 | 71 | 90 | 0 | 0 | 0 | 89 | 0.00 | 0.03 | 5.4 | 38 |
| 08/30 23:00 | 46 | 41 | 67 | 87 | 0 | 0 | 0 | 86 | 0.00 | 0.03 | 5.3 | 40 |
| 08/30 22:00 | 46 | 41 | 72 | 86 | 0 | 5 | 9 | 265 | 0.00 | 0.03 | 5.1 | 41 |
| 08/30 21:00 | 43 | 43 | 82 | 84 | 0 | 4 | 8 | 250 | 0.02 | 0.03 | 5.0 | 43 |
| 08/30 20:00 | 43 | 45 | 85 | 80 | 0 | 1 | 4 | 183 | 0.00 | 0.01 | 5.2 | 46 |
| 08/30 19:00 | 45 | 48 | 77 | 69 | 0 | 6 | 13 | 328 | 0.01 | 0.01 | 4.9 | 50 |

